FW1042 Weather Reports


Display with metric or nautical units.
time (UTC)temp
F
wind
direction
speed
MPH
gust
MPH
rain 1hr
in
rain 24hr
in
rain mn
in
humidity
%
barometer
mb
20260904133024 80 147 3.0 8.0 0.00 0.00 0.00 89 1014.6
20260904132524 80 116 2.0 8.0 0.00 0.00 0.00 89 1014.5
20260904132024 79 154 2.0 7.0 0.00 0.00 0.00 90 1014.4
20260904131810 79 172 2.0 7.0 0.00 0.00 0.00 90 1014.3
20260904131024 78 169 2.0 6.0 0.00 0.00 0.00 90 1014.3
20260904130524 78 142 2.0 6.0 0.00 0.00 0.00 90 1014.2
20260904130023 78 180 2.0 6.0 0.00 0.00 0.00 90 1014.2
20260904125523 78 188 2.0 6.0 0.00 0.00 0.00 90 1014.1
20260904125025 78 146 2.0 4.0 0.00 0.00 0.00 90 1014.1
20260904124523 78 98 1.0 4.0 0.00 0.00 0.00 90 1013.9
20260904124023 78 159 2.0 4.0 0.00 0.00 0.00 90 1014.0
20260904123523 78 165 2.0 5.0 0.00 0.00 0.00 90 1013.9
20260904123318 78 136 2.0 6.0 0.00 0.00 0.00 90 1013.8
20260904122814 78 162 2.0 6.0 0.00 0.00 0.00 90 1013.8
20260904122317 78 126 2.0 5.0 0.00 0.00 0.00 89 1013.7
20260904121517 78 167 2.0 3.0 0.00 0.00 0.00 89 1013.7
20260904121027 78 150 2.0 7.0 0.00 0.00 0.00 89 1013.7
20260904120526 78 109 2.0 6.0 0.00 0.00 0.00 89 1013.7
20260904120026 78 147 2.0 7.0 0.00 0.00 0.00 89 1013.7
20260904115524 78 153 2.0 7.0 0.00 0.00 0.00 89 1013.7
20260904115024 78 178 2.0 7.0 0.00 0.00 0.00 89 1013.6
20260904114521 78 143 2.0 5.0 0.00 0.00 0.00 89 1013.7
20260904114316 78 159 2.0 4.0 0.00 0.00 0.00 89 1013.6
20260904113522 78 150 2.0 6.0 0.00 0.00 0.00 89 1013.5
20260904113024 78 161 2.0 6.0 0.00 0.00 0.00 89 1013.6
20260904112521 78 153 2.0 5.0 0.00 0.00 0.00 88 1013.6
20260904112022 78 197 2.0 5.0 0.00 0.00 0.00 88 1013.6
20260904111521 78 159 1.0 3.0 0.00 0.00 0.00 88 1013.5
20260904111316 78 156 1.0 4.0 0.00 0.00 0.00 88 1013.6
20260904110517 78 146 1.0 6.0 0.00 0.00 0.00 88 1013.6
20260904110017 78 164 2.0 6.0 0.00 0.00 0.00 88 1013.5
20260904105514 78 171 2.0 5.0 0.00 0.00 0.00 88 1013.4
20260904105308 78 197 1.0 5.0 0.00 0.00 0.00 87 1013.4
20260904104513 78 153 1.0 4.0 0.00 0.00 0.00 87 1013.4
20260904104015 78 161 2.0 5.0 0.00 0.00 0.00 87 1013.3
20260904103513 78 130 1.0 5.0 0.00 0.00 0.00 87 1013.3
20260904103013 78 120 1.0 5.0 0.00 0.00 0.00 87 1013.4
20260904102513 78 110 1.0 5.0 0.00 0.00 0.00 87 1013.3
20260904102007 78 170 0.0 2.0 0.00 0.00 0.00 87 1013.2
20260904101501 78 134 1.0 5.0 0.00 0.00 0.00 86 1013.2
20260904101000 78 141 2.0 5.0 0.00 0.00 0.00 86 1013.3
20260904100502 78 163 1.0 5.0 0.00 0.00 0.00 86 1013.1
20260904095958 78 163 2.0 4.0 0.00 0.00 0.00 86 1013.1
20260904095458 78 157 2.0 5.0 0.00 0.00 0.00 86 1013.2
20260904095249 79 162 2.0 5.0 0.00 0.00 0.00 86 1013.1
20260904094455 79 172 2.0 5.0 0.00 0.00 0.00 85 1013.0
20260904093956 79 146 2.0 5.0 0.00 0.00 0.00 85 1013.1
20260904093455 79 157 2.0 5.0 0.00 0.00 0.00 85 1013.1
20260904092959 79 144 2.0 3.0 0.00 0.00 0.00 85 1013.2
20260904092453 79 163 2.0 8.0 0.00 0.00 0.00 85 1013.1
20260904091950 79 142 2.0 8.0 0.00 0.00 0.00 85 1013.0
20260904091450 79 175 2.0 8.0 0.00 0.00 0.00 85 1013.0
20260904090948 79 138 2.0 7.0 0.00 0.00 0.00 85 1013.1
20260904090448 79 292 2.0 5.0 0.00 0.00 0.00 85 1013.0
20260904085947 79 172 2.0 5.0 0.00 0.00 0.00 84 1013.0
20260904085448 79 181 2.0 5.0 0.00 0.00 0.00 84 1013.0
20260904084947 79 140 2.0 5.0 0.00 0.00 0.00 84 1013.1
20260904084447 79 219 2.0 5.0 0.00 0.00 0.00 84 1013.0
20260904083948 79 130 2.0 5.0 0.00 0.00 0.00 84 1013.0
20260904083447 79 232 2.0 7.0 0.00 0.00 0.00 84 1013.0
20260904082947 79 207 2.0 7.0 0.00 0.00 0.00 83 1013.1
20260904082445 79 157 2.0 6.0 0.00 0.00 0.00 83 1012.9
20260904081943 79 179 2.0 5.0 0.00 0.00 0.00 83 1013.0
20260904081444 79 159 1.0 6.0 0.00 0.00 0.00 83 1013.0
20260904080943 79 171 2.0 7.0 0.00 0.00 0.00 82 1012.9
20260904080740 79 173 2.0 7.0 0.00 0.00 0.00 82 1013.0
20260904075942 79 155 2.0 7.0 0.00 0.00 0.00 82 1013.0
20260904075437 80 88 1.0 5.0 0.00 0.00 0.00 82 1012.9
20260904074937 80 211 2.0 6.0 0.00 0.00 0.00 81 1012.9
20260904074438 80 149 2.0 8.0 0.00 0.00 0.00 81 1012.8
20260904074228 80 198 2.0 8.0 0.00 0.00 0.00 81 1012.8
20260904073439 80 138 3.0 8.0 0.00 0.00 0.00 81 1012.8
20260904072935 80 162 3.0 10.0 0.00 0.00 0.00 81 1012.9
20260904072436 80 192 3.0 10.0 0.00 0.00 0.00 80 1012.9
20260904072230 80 226 3.0 8.0 0.00 0.00 0.00 80 1013.0
20260904071732 80 165 3.0 7.0 0.00 0.00 0.00 80 1013.1
20260904070935 80 196 3.0 8.0 0.00 0.00 0.00 80 1013.1
20260904070437 80 202 3.0 8.0 0.00 0.00 0.00 80 1013.0
20260904065938 80 182 2.0 7.0 0.00 0.00 0.00 80 1013.1
20260904065435 80 159 2.0 6.0 0.00 0.00 0.00 79 1013.1
20260904064936 80 186 2.0 6.0 0.00 0.00 0.00 79 1013.2
20260904064723 80 172 2.0 7.0 0.00 0.00 0.00 79 1013.2
20260904063924 80 200 2.0 7.0 0.00 0.00 0.00 79 1013.2
20260904063422 80 153 2.0 6.0 0.00 0.00 0.00 78 1013.2
20260904062920 80 146 2.0 6.0 0.00 0.00 0.00 78 1013.2
20260904062419 80 174 2.0 7.0 0.00 0.00 0.00 78 1013.2
20260904061917 80 248 2.0 7.0 0.00 0.00 0.00 77 1013.3
20260904061707 80 192 2.0 7.0 0.00 0.00 0.00 77 1013.2
20260904060919 80 204 2.0 7.0 0.00 0.00 0.00 77 1013.3
20260904060714 80 234 2.0 7.0 0.00 0.00 0.00 76 1013.3
20260904055917 80 148 3.0 9.0 0.00 0.00 0.00 76 1013.3
20260904055417 80 167 3.0 9.0 0.00 0.00 0.00 76 1013.3
20260904054917 80 113 3.0 7.0 0.00 0.00 0.00 75 1013.4
20260904054417 81 198 3.0 8.0 0.00 0.00 0.00 75 1013.4
20260904053917 81 129 3.0 10.0 0.00 0.00 0.00 75 1013.4
20260904053705 81 123 3.0 10.0 0.00 0.00 0.00 74 1013.3
20260904052905 81 171 3.0 8.0 0.00 0.00 0.00 74 1013.3
20260904052401 81 152 3.0 8.0 0.00 0.00 0.00 73 1013.1
20260904052158 81 144 3.0 8.0 0.00 0.00 0.00 73 1013.2
20260904051402 81 136 3.0 8.0 0.00 0.00 0.00 73 1013.2
20260904050901 81 150 2.0 7.0 0.00 0.00 0.00 73 1013.2
20260904050401 81 130 3.0 8.0 0.00 0.00 0.00 72 1013.1
20260904045900 81 163 3.0 8.0 0.00 0.00 0.00 72 1013.1
20260904045401 81 121 3.0 7.0 0.00 0.00 0.00 72 1013.1
20260904044902 81 192 3.0 9.0 0.00 0.00 0.00 72 1013.0
20260904044401 81 152 3.0 9.0 0.00 0.00 0.00 72 1013.1
20260904043901 81 140 3.0 8.0 0.00 0.00 0.00 71 1013.1
20260904043359 81 325 3.0 9.0 0.00 0.00 0.00 71 1013.2
20260904042858 82 160 3.0 9.0 0.00 0.00 0.00 71 1013.1
20260904042352 82 189 3.0 8.0 0.00 0.00 0.00 70 1013.1
20260904041846 82 88 3.0 8.0 0.00 0.00 0.00 70 1013.0
20260904041347 82 163 3.0 9.0 0.00 0.00 0.00 69 1013.2
20260904040846 82 119 2.0 9.0 0.00 0.00 0.00 68 1013.1
20260904040344 82 180 3.0 8.0 0.00 0.00 0.00 67 1013.2
20260904035844 82 146 3.0 8.0 0.00 0.00 0.00 66 1013.3
20260904035344 82 155 3.0 8.0 0.00 0.00 0.00 66 1013.1
20260904035226 83 153 4.0 10.0 0.00 0.00 0.00 65 1013.2
20260904035221 83 133 4.0 8.0 0.00 0.00 0.00 66 1013.1
20260904033845 83 170 3.0 10.0 0.00 0.00 0.00 65 1013.2
20260904033344 83 177 3.0 8.0 0.00 0.00 0.00 65 1013.2
20260904032844 83 132 4.0 10.0 0.00 0.00 0.00 66 1013.3
20260904032344 83 190 4.0 10.0 0.00 0.00 0.00 66 1013.3
20260904031846 83 142 3.0 8.0 0.00 0.00 0.00 66 1013.3
20260904031345 83 184 3.0 8.0 0.00 0.00 0.00 67 1013.3
20260904030839 84 162 2.0 7.0 0.00 0.00 0.00 68 1013.2
20260904030336 84 175 3.0 8.0 0.00 0.00 0.00 68 1013.1
20260904025837 84 185 4.0 9.0 0.00 0.00 0.00 68 1013.1
20260904025334 84 118 4.0 9.0 0.00 0.00 0.00 68 1013.0
20260904024834 84 146 5.0 12.0 0.00 0.00 0.00 68 1013.0
20260904024333 84 124 4.0 12.0 0.00 0.00 0.00 69 1012.9
20260904024129 84 156 3.0 9.0 0.00 0.00 0.00 69 1012.8
20260904023332 84 189 3.0 8.0 0.00 0.00 0.00 69 1012.8
20260904022830 85 144 3.0 8.0 0.00 0.00 0.00 69 1012.8
20260904022330 85 154 3.0 8.0 0.00 0.00 0.00 68 1012.6
20260904021828 85 147 3.0 8.0 0.00 0.00 0.00 68 1012.6
20260904021328 85 173 3.0 9.0 0.00 0.00 0.00 67 1012.5
20260904020829 85 187 3.0 9.0 0.00 0.00 0.00 67 1012.3
20260904020329 85 178 4.0 9.0 0.00 0.00 0.00 66 1012.3
20260904015814 85 96 4.0 8.0 0.00 0.00 0.00 66 1012.2
20260904015308 85 153 4.0 9.0 0.00 0.00 0.00 65 1012.2
20260904014802 85 134 4.0 9.0 0.00 0.00 0.00 64 1012.2
20260904014306 85 134 4.0 13.0 0.00 0.00 0.00 64 1012.0
20260904013804 85 123 5.0 14.0 0.00 0.00 0.00 64 1012.0
20260904013603 85 152 5.0 14.0 0.00 0.00 0.00 65 1012.0
20260904012802 86 132 3.0 9.0 0.00 0.00 0.00 66 1011.9
20260904012554 86 157 4.0 10.0 0.00 0.00 0.00 66 1011.9
20260904011803 86 142 4.0 10.0 0.00 0.00 0.00 66 1011.6
20260904011302 86 113 3.0 9.0 0.00 0.00 0.00 66 1011.6
20260904010804 86 171 3.0 9.0 0.00 0.00 0.00 66 1011.6
20260904010307 87 138 3.0 11.0 0.00 0.00 0.00 65 1011.6
20260904005803 87 147 4.0 11.0 0.00 0.00 0.00 65 1011.5
20260904005306 87 163 4.0 11.0 0.00 0.00 0.00 65 1011.4
20260904004802 87 136 4.0 11.0 0.00 0.00 0.00 65 1011.4
20260904004258 87 196 4.0 13.0 0.00 0.00 0.00 64 1011.3
20260904003758 88 155 4.0 13.0 0.00 0.00 0.00 64 1011.2
20260904003258 88 112 4.0 8.0 0.00 0.00 0.00 63 1011.4
20260904002803 89 96 4.0 11.0 0.00 0.00 0.00 63 1011.3
20260904002259 89 167 4.0 11.0 0.00 0.00 0.00 62 1011.2
20260904001758 89 146 3.0 10.0 0.00 0.00 0.00 61 1011.2
20260904001300 90 96 3.0 10.0 0.00 0.00 0.00 60 1011.1
20260904000758 90 130 4.0 12.0 0.00 0.00 0.00 59 1011.1
20260904000258 91 149 4.0 12.0 0.00 0.00 0.00 58 1011.1
20260903235759 91 159 4.0 9.0 0.00 0.00 0.00 57 1011.2
20260903235305 92 156 4.0 9.0 0.00 0.00 0.00 57 1011.1
20260903234759 92 140 3.0 10.0 0.00 0.00 0.00 57 1011.0
20260903234259 91 129 4.0 10.0 0.00 0.00 0.00 57 1010.9
20260903234052 0 129 4.0 10.0 0.00 0.00 0.00
20260903233125 91 148 4.0 11.0 0.00 0.00 0.00 57 1011.0
20260903232622 92 156 4.0 11.0 0.00 0.00 0.00 57 1010.8
20260903232223 92 163 3.0 12.0 0.00 0.00 0.00 57 1010.5
20260903232156 92 126 4.0 11.0 0.00 0.00 0.00 57 1010.8
20260903231121 92 195 4.0 12.0 0.00 0.00 0.00 57 1010.8
20260903230846 92 192 4.0 11.0 0.00 0.00 0.00 57 1010.8
20260903230633 92 192 4.0 11.0 0.00 0.00 0.00 57 1010.8
20260903230121 93 148 4.0 11.0 0.00 0.00 0.00 56 1010.8
20260903225623 93 184 3.0 8.0 0.00 0.00 0.00 56 1010.7
20260903225120 93 155 3.0 8.0 0.00 0.00 0.00 57 1010.7
20260903224956 92 151 3.0 8.0 0.00 0.00 0.00 58 1010.6
20260903224952 93 122 3.0 8.0 0.00 0.00 0.00 58 1010.6
20260903223616 92 129 4.0 9.0 0.00 0.00 0.00 59 1010.8
20260903223116 91 142 4.0 9.0 0.00 0.00 0.00 59 1010.8
20260903222614 91 188 3.0 9.0 0.00 0.00 0.00 61 1010.7
20260903222116 90 169 2.0 7.0 0.00 0.00 0.00 60 1010.7
20260903221612 91 150 3.0 8.0 0.00 0.00 0.00 60 1010.8
20260903221112 91 127 3.0 8.0 0.00 0.00 0.00 60 1010.8
20260903220611 92 140 4.0 10.0 0.00 0.00 0.00 59 1010.7
20260903220110 92 116 4.0 10.0 0.00 0.00 0.00 58 1010.7
20260903215610 92 136 3.0 10.0 0.00 0.00 0.00 57 1010.7
20260903215111 93 177 3.0 10.0 0.00 0.00 0.00 57 1010.7
20260903214614 93 142 4.0 12.0 0.00 0.00 0.00 56 1010.8
20260903214110 94 87 4.0 12.0 0.00 0.00 0.00 56 1010.8
20260903213610 94 157 4.0 11.0 0.00 0.00 0.00 57 1010.9
20260903213108 94 158 4.0 11.0 0.00 0.00 0.00 57 1010.9
20260903212609 94 183 4.0 10.0 0.00 0.00 0.00 58 1011.0
20260903212404 94 194 4.0 10.0 0.00 0.00 0.00 58 1011.0
20260903211608 94 80 4.0 11.0 0.00 0.00 0.00 57 1011.1
20260903211204 93 143 3.0 8.0 0.00 0.00 0.00 59 1011.0
20260903211142 93 162 4.0 11.0 0.00 0.00 0.00 58 1011.2
20260903210108 92 146 3.0 8.0 0.00 0.00 0.00 60 1011.2
20260903205903 92 140 4.0 8.0 0.00 0.00 0.00 60 1011.4
20260903205208 92 207 4.0 11.0 0.00 0.00 0.00 61 1011.3
20260903205140 92 181 4.0 11.0 0.00 0.00 0.00 60 1011.4
20260903204108 92 164 4.0 10.0 0.00 0.00 0.00 59 1011.6
20260903203610 93 178 5.0 12.0 0.00 0.00 0.00 59 1011.6
20260903203159 93 203 5.0 12.0 0.00 0.00 0.00 60 1011.7
20260903202608 92 235 4.0 11.0 0.00 0.00 0.00 60 1011.8
20260903202109 92 186 4.0 11.0 0.00 0.00 0.00 63 1011.8
20260903201609 90 176 5.0 11.0 0.00 0.00 0.00 63 1011.9
20260903201108 91 0.0 0.0 0.00 0.00 0.00 61
20260903194614 90 162 5.0 11.0 0.00 0.00 0.00 66 1012.1
20260903194116 89 98 5.0 11.0 0.00 0.00 0.00 64 1012.2
20260903193659 90 157 5.0 11.0 0.00 0.00 0.00 65 1012.2
20260903192613 89 163 5.0 11.0 0.00 0.00 0.00 66 1012.3
20260903192114 89 144 5.0 12.0 0.00 0.00 0.00 66 1012.4
20260903191614 89 171 6.0 17.0 0.00 0.00 0.00 66 1012.5
20260903191410 90 223 5.0 17.0 0.00 0.00 0.00 66 1012.6
20260903190614 89 218 5.0 12.0 0.00 0.00 0.00 68 1012.6
20260903190114 88 116 4.0 12.0 0.00 0.00 0.00 69 1012.6
20260903185615 88 150 5.0 13.0 0.00 0.00 0.00 68 1012.8
20260903185412 88 174 4.0 13.0 0.00 0.00 0.00 69 1012.9
20260903184614 88 165 5.0 13.0 0.00 0.00 0.00 70 1012.9
20260903184142 88 207 6.0 13.0 0.00 0.00 0.00 69 1013.0
20260903183114 88 165 5.0 13.0 0.00 0.00 0.00 69 1013.1
20260903182614 88 182 5.0 11.0 0.00 0.00 0.00 72 1013.0
20260903182406 87 168 5.0 11.0 0.00 0.00 0.00 71 1013.1
20260903181614 88 325 4.0 10.0 0.00 0.00 0.00 71 1013.3
20260903181115 88 155 4.0 12.0 0.00 0.00 0.00 71 1013.3
20260903180613 87 155 5.0 12.0 0.00 0.00 0.00 72 1013.3
20260903180117 87 134 5.0 11.0 0.00 0.00 0.00 72 1013.5
20260903175612 87 149 4.0 11.0 0.00 0.00 0.00 72 1013.5
20260903175112 87 137 3.0 11.0 0.00 0.00 0.00 73 1013.4
20260903174612 87 163 3.0 11.0 0.00 0.00 0.00 74 1013.4
20260903174112 87 142 3.0 11.0 0.00 0.00 0.00 74 1013.6
20260903173914 87 107 3.0 8.0 0.00 0.00 0.00 74 1013.7
20260903173111 87 355 4.0 11.0 0.00 0.00 0.00 75 1013.6
20260903172612 86 96 4.0 11.0 0.00 0.00 0.00 75 1013.7
20260903172111 87 132 4.0 10.0 0.00 0.00 0.00 74 1013.7
20260903171612 87 165 5.0 12.0 0.00 0.00 0.00 73 1013.8
20260903171112 87 167 5.0 12.0 0.00 0.00 0.00 73 1013.9
20260903170612 87 210 4.0 12.0 0.00 0.00 0.00 75 1013.8
20260903170112 86 166 4.0 12.0 0.00 0.00 0.00 75 1013.8
20260903165616 86 147 4.0 9.0 0.00 0.00 0.00 75 1013.8
20260903165402 86 128 4.0 9.0 0.00 0.00 0.00 75 1013.8
20260903164613 86 176 3.0 9.0 0.00 0.00 0.00 76 1013.7
20260903164110 86 199 4.0 12.0 0.00 0.00 0.00 76 1013.8
20260903163610 86 178 4.0 12.0 0.00 0.00 0.00 76 1013.8
20260903163110 85 211 3.0 8.0 0.00 0.00 0.00 78 1013.9
20260903162609 85 171 3.0 8.0 0.00 0.00 0.00 79 1013.8
20260903162114 84 140 3.0 7.0 0.00 0.00 0.00 81 1013.9
20260903161609 83 127 3.0 7.0 0.00 0.00 0.00 80 1013.8
20260903161110 83 127 3.0 9.0 0.00 0.00 0.00 81 1013.9
20260903160607 83 212 3.0 9.0 0.00 0.00 0.00 81 1013.8
20260903160108 83 123 3.0 9.0 0.00 0.00 0.00 81 1013.8
20260903155640 83 102 4.0 9.0 0.00 0.00 0.00 81 1013.9
20260903154607 83 209 4.0 9.0 0.00 0.00 0.00 80 1013.7
20260903154106 83 200 4.0 9.0 0.00 0.00 0.00 80 1013.8
20260903153605 83 124 3.0 9.0 0.00 0.00 0.00 80 1013.7
20260903153106 83 108 3.0 9.0 0.00 0.00 0.00 81 1013.7
20260903152606 83 148 3.0 9.0 0.00 0.00 0.00 81 1013.7
20260903152106 83 168 3.0 10.0 0.00 0.00 0.00 82 1013.7
20260903151901 82 145 4.0 10.0 0.00 0.00 0.00 82 1013.7
20260903151109 82 192 3.0 7.0 0.00 0.00 0.00 83 1013.6
20260903150605 82 168 3.0 7.0 0.00 0.00 0.00 84 1013.7
20260903150106 81 152 3.0 7.0 0.00 0.00 0.00 84 1013.8
20260903145605 81 158 3.0 9.0 0.00 0.00 0.00 85 1013.7
20260903145106 81 130 3.0 9.0 0.00 0.00 0.00 85 1013.7
20260903144904 80 170 2.0 6.0 0.00 0.00 0.00 86 1013.8
20260903144103 80 161 3.0 9.0 0.00 0.00 0.00 86 1013.8
20260903143606 80 120 3.0 9.0 0.00 0.00 0.00 86 1013.7
20260903143102 80 178 3.0 10.0 0.00 0.00 0.00 86 1013.7
20260903142602 80 182 3.0 10.0 0.00 0.00 0.00 86 1013.8
20260903142101 80 117 2.0 6.0 0.00 0.00 0.00 86 1013.8
20260903141601 80 126 2.0 8.0 0.00 0.00 0.00 86 1013.8
20260903141103 80 143 2.0 8.0 0.00 0.00 0.00 86 1014.0
20260903140555 80 98 2.0 7.0 0.00 0.00 0.00 86 1013.9
20260903140050 80 61 2.0 7.0 0.00 0.00 0.00 86 1013.9
20260903135549 80 182 2.0 5.0 0.00 0.00 0.00 86 1013.8
20260903135051 79 119 2.0 7.0 0.00 0.00 0.00 86 1013.8
20260903134838 79 94 2.0 7.0 0.00 0.00 0.00 85 1013.8
20260903134048 79 328 1.0 4.0 0.00 0.00 0.00 85 1013.7
20260903133547 79 104 1.0 3.0 0.00 0.00 0.00 85 1013.8